COSMOS 1275 DEB, 12670

Orbit data source: Space-Track

COSMOS 1275 DEB, 12670 is space debris in LEO originally from a launch on Thu, 04 Jun 1981 UTC launched from the Plesetsk Missile And Space Complex (PKMTR). Debris objects in space refer to the collection of defunct objects orbiting the Earth. Examples of debris include non-operational satellites, rocket bodies, and fragments generated from explosions, collisions, or faulty payload assembly.

Loading next visibility...
Identifier
12670, 1981-053AA
Orbit
LEO
Country
Flag of CISCIS
Related business
Manufacturer
Unknown
Mission
Spacecraft
Bus & Motor
Unknown
Mass
Unknown
Launch date (UTC)
1981-06-04 (45 years ago)
Launch vehicle
Unknown
Launch site
Plesetsk Missile And Space Complex (PKMTR)
Object type
Payload
Rocket body
Debris
Shape & HBR
Unknown shape, 0.4 m
Radar Cross Section
Medium (>0.1 m² and <1 m²)

Expand to show TLE details & history
Last TLE update: 9 hours ago

TLE from 9 hours ago
0 COSMOS 1275 DEB
1 12670U 81053AA  25342.95044457  .00000717  00000-0  65804-3 0  9998
2 12670  82.9408 346.9428 0054622 240.5578 184.9844 13.80968164227516
Epoch: 2025-12-08T22:48Z
TLE epoch observation values (Epoch: 2025-12-08T22:48:38.410Z)
Latitude
64.63817°
Longitude
-58.09576°
Altitude
1,011.548 km
Speed
7.332 km/s
True Right ascension
00h 08m 01s
True Declination
64° 30' 34"
Sunlit
Object was in daylight at epoch
Visualization orbit readout
Latitude
Unknown
Longitude
Unknown
Altitude
Unknown
Speed
Unknown
Apparent Right ascension
Unknown
Apparent Declination
Unknown
Sunlit
N/A
Visualization observer readout
Local Sidereal Time
06:10:53
Azimuth
Unknown
Elevation
Unknown
Doppler factor
Unknown
Orbital elements
Apogee altitude
997.665 km
Perigee altitude
917.526 km
Semi-major axis
7,335.732 km
Eccentricity
0.00546
Inclination
82.9408°
RAAN
346.9428°
Arg. of periapsis
240.5578°
True anomaly
184.93038°
Mean anomaly
184.9844°
Eccentric anomaly
184.95736°
Mean motion
3.45444 °/min
Orbital period
104.21 mins
BSTAR
0.00065804
Loading maneuver chart data...
Computing Atmospheric mass density...

Documentation

Showing up to 5 results
|